Regional Weather Roundup
Issued by NWS New Orleans/Baton Rouge, LA

Home | Current Version | Previous Version | Text Only | Print | Product List | Glossary On
Versions: 1 2 3 4 5 6 7 8 9 10 11 12 13 14 15 16 17 18 19 20 21 22 23 24 25 26 27 28 29 30 31 32 33 34 35 36 37 38 39 40 41 42 43 44 45 46 47 48 49 50
000
ASUS44 KLIX 062210
RWRLIX
NEW ORLEANS REGIONAL WEATHER ROUNDUP
NATIONAL WEATHER SERVICE NEW ORLEANS LA
400 PM CST FRI MAR 06 2015

NOTE: "FAIR" INDICATES FEW OR NO CLOUDS BELOW 12,000 FEET WITH NO
      SIGNIFICANT WEATHER AND/OR OBSTRUCTIONS TO VISIBILITY.
      SKY/WX - SKY CONDITION AND SIGNIFICANT WEATHER.
      TMP - AIR TEMPERATURE.     DP    - DEWPOINT TEMPERATURE.
      RH  - RELATIVE HUMIDITY.   PRES  - PRESSURE.
      HI  - HEAT INDEX.          WCI   - WIND CHILL INDEX.

*  THESE STATIONS ARE NOT NWS OR FAA STATIONS AND ARE NOT UNDER
   NWS QUALITY CONTROL.

LAZ038-040-048-061>063-065>067-069-062300-
SOUTHEAST LOUISIANA

CITY           SKY/WX    TMP DP  RH WIND       PRES   REMARKS
N.O. AUDUBON     N/A     53  22  30 MISG        N/A
N.O. INTL ARPT PTSUNNY   52  19  27 N8        30.41F
N.O. LAKEFRONT PTSUNNY   54  21  27 N10       30.41F
SLIDELL        MOSUNNY   55  15  20 NE7       30.40S
BATON ROUGE    PTSUNNY   54  15  21 N8        30.43S
BOOTHVILLE     PTSUNNY   50  27  40 N10G18    30.40S
BELLE CHASSE   PTSUNNY   52  17  25 N7        30.40F
BOGALUSA*        N/A     56  15  20 N10       30.42S
GALLIANO*      MOCLDY    51  22  32 NW14      30.41S
NEW ROADS*       N/A     49  25  38 NW13      30.45R
GONZALES*        N/A     55  14  20 N8        30.41F
HAMMOND*       MOSUNNY   55   9  15 N8        30.43R
HOUMA*         SUNNY     52  21  30 N9        30.41F
PORT FOURCHON* CLEAR     52  23  32 NE15      30.43S

$$

MSZ070-080>082-062300-
SOUTHERN MISSISSIPPI

CITY           SKY/WX    TMP DP  RH WIND       PRES   REMARKS
MCCOMB         PTSUNNY   52  10  18 N10       30.43S
GULFPORT       SUNNY     55  15  20 NE9       30.38F
BILOXI         MOSUNNY   54  18  23 NE7       30.38S
PASCAGOULA     MOSUNNY   56  14  19 N14       30.38F
STENNIS ARPT*  SUNNY     55   1  11 N12       30.40S

$$

COASTAL OBSERVATIONS
LAKE AND NEARSHORE STATIONS

STATION/POSITION TIME  TEMP    WIND        PRES    WAVE
                       AIR SEA DIR/SP/G            HT/PER
                 (UTC) (F)     (DEG/KT/KT) (MB)    (FT/S)
PASCAGOULA       2200   55     360/  9/ 13 1028.2
WAVELAND YACHT   2200   52 53   10/  8/ 12 1028.9
GRAND ISLE       2200   51 56   40/ 12/ 18 1029.6
SOUTHWEST PASS   2200   49 43   20/ 17/ 19 1029.2
NEW CANAL        2200   49      10/  4/  5 1030.2
SHELL BEACH      2200   49 53   30/  9/ 11 1029.2

OFFSHORE STATIONS

STATION/POSITION TIME  TEMP    WIND        PRES    WAVE
                       AIR SEA DIR/SP/G            HT/PER
                 (UTC) (F)     (DEG/KT/KT) (MB)    (FT/S)
64 S DAUPHIN ISL 2126   50 66   20/ 19/ 21 1028.4    5/ 6

$$




USA.gov is the U.S. government's official web portal to all federal, state and local government web resources and services.